Hourly Data Report for October 04, 2017

All times are specified in Local Standard Time (LST). Add 1 hour to adjust for Daylight Saving Time where and when it is observed.

WESTERN HEAD
NOVA SCOTIA

43°59'24.070" N
64°39'51.008" W
10.10 m
8206240
71411
WWE

Download Data

Hourly Data (October 2017)
Hourly Data Report for October 4, 2017
Temp Definition
°C
Dew Point Temp Definition
°C
Rel Hum Definition
%
Wind Dir Definition
10's deg

Wind Spd Definition
km/h
Visibility Definition
km
Stn Press Definition
kPa
Hmdx Definition


Wind Chill Definition


Weather Definition


TIME
00:00 7.8 6.1 89 24 13   103.03     LegendNANA
01:00 7.4 6.2 92 25 13   103.01     LegendNANA
02:00 8.0 6.8 92 25 14   102.92     LegendNANA
03:00 9.2 7.6 90 25 18   102.86     LegendNANA
04:00 9.7 7.7 87 24 19   102.81     LegendNANA
05:00 9.9 7.9 88 24 22   102.76     LegendNANA
06:00 10.3 8.5 89 24 23   102.70     LegendNANA
07:00 11.5 9.7 89 24 28   102.63     LegendNANA
08:00 13.0 10.8 87 23 26   102.59     LegendNANA
09:00 15.4 11.3 77 23 25   102.57     LegendNANA
10:00 17.1 12.2 73 23 25   102.49     LegendNANA
11:00 18.6 13.1 70 23 27   102.38     LegendNANA
12:00 19.4 13.0 67 23 29   102.28     LegendNANA
13:00 20.4 12.7 61 23 28   102.14     LegendNANA
14:00 19.6 12.9 65 22 30   102.04     LegendNANA
15:00 19.9 12.7 63 24 30   101.99     LegendNANA
16:00 19.0 12.8 67 24 31   101.93     LegendNANA
17:00 16.9 12.5 75 24 30   101.90     LegendNANA
18:00 14.7 12.6 88 24 24   101.82     LegendNANA
19:00 13.7 12.3 91 24 22   101.80     LegendNANA
20:00 13.9 12.5 91 24 23   101.76     LegendNANA
21:00 14.4 12.8 90 24 31   101.69     LegendNANA
22:00 14.6 13.1 91 24 25   101.66     LegendNANA
23:00 15.0 13.6 92 24 30   101.56     LegendNANA

Notes on Data Quality.

Legend

  • E = Estimated
  • M = Missing
  • NA = Not Available
  • ‡ = Partner data that is not subject to review by the National Climate Archives
Date modified: